Starlink 31076

operational
NORAD ID: 58736 Int'l Des: 2024-005 Owner: SPXS Country: US Constellation: starlink
LEOCIRCULAR

Über Starlink 31076

Beschreibung wird geladen...

Live-Position

3D-Globus wird geladen...

Nächste Überflüge

Höhenverlauf

Altitude vs Time

uPlot chart will show altitude changes over time

Zweizeiliger Elementsatz

1 58736U 24005J 26034.02469782 -.00000920 00000-0 -53058-4 0 9991
2 58736 42.9985 50.2719 0001079 279.7406 80.3315 15.02541021115248
Epoch: 3. Feb. 2026 • Age: 30 hours

Aktueller Status

Höhe 561.2 km
Geschwindigkeit 7.58 km/s
Subsatellitenpunkt -11.97°S, 9.42°E
Startdatum 7. Jan. 2024
Alter 2 years
Typ internet

Technische Details

Klassifizierung Payload
Masse 730.00 kg
Trockenmasse 700.00 kg
Gesamtmasse 730.00 kg
Länge 0.30 m
Durchmesser 4.10 m
Spannweite 29.00 m
Form Box + pan
Hersteller SPXS
Bus-Typ Starlink V2M
Phasenstatus In Orbit
Besitzer/Staat SPXS/US

Große Konstellationen

Loading constellations...